Stations météo

Publicité
La Hague, France (7020): Température de l'air & dewpoint: 08.11.2018 09:00:00 - 14.11.2018 09:00:00 (CET)La Hague, France (7020): Vitesse du vent & gusts: 08.11.2018 09:00:00 - 14.11.2018 09:00:00 (CET)La Hague, France (7020): Direction du vent: 08.11.2018 09:00:00 - 14.11.2018 09:00:00 (CET)La Hague, France (7020): reduced air pressure: 08.11.2018 09:00:00 - 14.11.2018 09:00:00 (CET)La Hague, France (7020): visibility: 08.11.2018 09:00:00 - 14.11.2018 09:00:00 (CET)La Hague, France (7020): Quantités de précipitations: 08.11.2018 09:00:00 - 14.11.2018 09:00:00 (CET)
Date & Time tt [°C] td [°C] ff [km/h] ff [knt] fx [km/h] fx [knt] dd ppp [hPa] vv [km] rr [mm]
14.11.2018 09:00:00 - - - - - - - - - -
14.11.2018 08:00:00 10,8 8,4 24 13 39 21 S 1022,9 - 0,0
14.11.2018 07:00:00 11,0 8,6 23 12 39 21 S 1023,0 14 0,0
14.11.2018 06:00:00 11,4 9,0 23 13 45 24 S 1023,0 - 0,0
14.11.2018 05:00:00 11,7 8,4 34 18 47 25 S 1023,3 - 0,0
14.11.2018 04:00:00 12,1 9,1 27 15 46 25 S 1023,9 14 0,0
14.11.2018 03:00:00 12,5 9,1 30 16 47 25 S 1024,5 - 0,0
14.11.2018 02:00:00 12,8 8,7 29 16 49 26 S 1025,2 - 0,0
14.11.2018 01:00:00 12,8 9,4 31 17 48 26 S 1025,4 - 0,0
14.11.2018 00:00:00 13,0 9,6 32 17 47 26 SSW 1025,7 - 0,0
13.11.2018 23:00:00 13,2 8,9 29 16 46 25 SSW 1025,7 - 0,0
13.11.2018 22:00:00 13,4 9,1 30 16 45 24 SSW 1025,7 14 0,0
13.11.2018 21:00:00 12,6 9,2 19 10 32 17 SSE 1025,6 - 0,0
13.11.2018 20:00:00 12,9 8,8 18 10 27 15 S 1025,7 - 0,0
13.11.2018 19:00:00 13,0 8,9 17 9 29 16 S 1025,8 14 0,0
13.11.2018 18:00:00 13,3 9,4 19 11 35 19 SSW 1025,6 - 0,0
13.11.2018 17:00:00 13,4 9,1 24 13 38 21 SSW 1025,4 - 0,0
13.11.2018 16:00:00 13,9 8,9 29 16 42 23 SW 1025,3 12 0,0
13.11.2018 15:00:00 14,5 9,7 30 16 44 24 SSW 1025,2 - 0,0
13.11.2018 14:00:00 14,3 10,1 29 16 41 22 SW 1025,1 - 0,0
13.11.2018 13:00:00 14,0 9,6 32 18 44 24 SW 1024,8 12 0,0
13.11.2018 12:00:00 14,1 8,9 34 19 44 24 WSW 1024,5 - 0,0
13.11.2018 11:00:00 14,0 8,8 35 19 45 24 WSW 1023,7 - 0,0
13.11.2018 10:00:00 13,1 8,4 39 21 53 29 WSW 1022,9 12 0,0
13.11.2018 09:00:00 13,2 8,5 37 20 58 32 W 1022,2 - 0,2
13.11.2018 08:00:00 13,3 8,6 41 22 53 28 WSW 1020,8 - 0,0
13.11.2018 07:00:00 12,0 8,1 38 21 63 34 W 1019,9 12 0,6
13.11.2018 06:00:00 13,2 8,3 39 21 66 35 WSW 1018,8 - 0,0
13.11.2018 05:00:00 13,0 8,9 38 21 59 32 WSW 1017,9 - 0,0
13.11.2018 04:00:00 12,5 8,0 40 21 58 31 WSW 1017,3 20 0,2
13.11.2018 03:00:00 12,3 8,2 40 22 69 37 SW 1016,7 - 1,2
13.11.2018 02:00:00 11,8 8,6 45 24 66 36 SW 1015,8 - 0,2
13.11.2018 01:00:00 12,9 9,2 40 22 61 33 SSW 1015,4 20 0,0
13.11.2018 00:00:00 12,9 9,2 44 24 63 34 SSW 1014,9 - 0,6
12.11.2018 23:00:00 13,4 9,3 41 22 63 34 SW 1014,6 - 0,0
12.11.2018 22:00:00 13,7 8,9 43 23 65 35 SW 1014,3 20 0,0
12.11.2018 21:00:00 13,9 8,5 42 23 66 36 SW 1013,8 - 0,0
12.11.2018 20:00:00 14,0 8,6 42 23 60 33 SW 1013,4 - 0,0
12.11.2018 19:00:00 13,9 9,1 34 18 50 27 SSW 1013,0 14 0,0
12.11.2018 18:00:00 13,8 9,4 32 17 48 26 SSW 1012,5 - 0,0
12.11.2018 17:00:00 13,9 8,9 33 18 50 27 SSW 1012,2 - 0,0
12.11.2018 16:00:00 14,1 9,9 29 16 50 27 SSW 1011,9 20 0,0
12.11.2018 15:00:00 14,5 10,1 33 18 51 27 SSW 1011,6 - 0,0
12.11.2018 14:00:00 14,5 10,1 35 19 54 29 SSW 1011,4 - 0,0
12.11.2018 13:00:00 14,4 10,2 38 21 52 28 S 1011,1 20 0,0
12.11.2018 12:00:00 14,2 10,0 32 17 48 26 SSW 1010,8 - 0,0
12.11.2018 11:00:00 13,8 9,8 32 17 48 26 SSW 1010,4 - 0,0
12.11.2018 10:00:00 13,7 10,3 31 17 48 26 SSW 1010,3 20 0,0
12.11.2018 09:00:00 13,1 10,3 32 17 46 25 S 1009,7 - 0,0
12.11.2018 08:00:00 13,1 10,3 33 18 46 25 S 1008,9 - 0,0
12.11.2018 07:00:00 13,0 10,4 27 14 39 21 S 1008,0 14 0,2
12.11.2018 06:00:00 13,2 10,2 25 13 40 22 S 1007,3 - 0,0
12.11.2018 05:00:00 13,3 10,1 28 15 39 21 SSW 1007,3 - 0,0
12.11.2018 04:00:00 13,4 9,3 29 15 41 22 SSW 1007,0 12 0,0
12.11.2018 03:00:00 13,3 9,2 29 15 41 22 SSW 1006,8 - 0,0
12.11.2018 02:00:00 13,3 9,5 29 15 48 26 SSW 1006,5 - 0,0
12.11.2018 01:00:00 13,2 9,8 33 18 48 26 S 1006,7 12 0,0
12.11.2018 00:00:00 13,1 9,5 30 16 49 26 S 1006,3 - 0,0
11.11.2018 23:00:00 13,3 9,5 34 18 49 26 S 1006,4 - 0,0
11.11.2018 22:00:00 13,5 9,2 31 17 49 27 SSW 1006,1 12 0,0
11.11.2018 21:00:00 13,6 8,8 31 17 45 24 SSW 1005,6 - 0,0
11.11.2018 20:00:00 13,5 8,8 28 15 48 26 SSW 1005,0 - 0,0
11.11.2018 19:00:00 13,5 8,8 30 16 45 24 SSW 1004,6 14 0,0
11.11.2018 18:00:00 13,4 7,8 30 16 46 25 SSW 1003,8 - 0,0
11.11.2018 17:00:00 13,5 7,9 31 17 46 25 SW 1003,4 - 0,0
11.11.2018 16:00:00 13,8 8,0 29 16 47 25 SSW 1002,7 14 0,0
11.11.2018 15:00:00 14,1 8,5 35 19 48 26 SW 1002,4 - 0,0
11.11.2018 14:00:00 14,5 9,1 35 19 54 29 SSW 1001,9 - 0,0
11.11.2018 13:00:00 14,3 8,9 36 20 53 29 SSW 1001,2 14 0,0
11.11.2018 12:00:00 13,6 8,4 39 21 55 30 SW 1000,9 - 0,0
11.11.2018 11:00:00 13,5 8,5 40 22 55 30 SSW 1000,4 - 0,0
11.11.2018 10:00:00 13,4 7,8 42 23 64 35 SW 999,6 14 0,0
11.11.2018 09:00:00 13,2 8,9 44 24 65 35 SSW 998,3 - 0,0
11.11.2018 08:00:00 13,1 8,4 48 26 64 35 SW 996,9 - 0,0
11.11.2018 07:00:00 12,9 8,6 46 25 70 38 SW 996,2 - 0,0
11.11.2018 06:00:00 12,9 8,6 50 27 79 43 SSW 995,3 - 0,0
11.11.2018 05:00:00 12,8 8,3 54 29 78 42 SSW 995,1 - 0,0
11.11.2018 04:00:00 12,3 9,1 45 25 77 42 SSW 994,4 - 1,0
11.11.2018 03:00:00 12,7 9,3 42 23 61 33 S 995,0 - 0,0
11.11.2018 02:00:00 12,7 9,1 40 22 58 31 S 995,4 - 0,0
11.11.2018 01:00:00 12,8 8,7 39 21 60 33 SSW 995,4 12 0,0
11.11.2018 00:00:00 12,8 8,1 41 22 58 31 SSW 995,3 - 0,0
10.11.2018 23:00:00 12,9 8,8 42 23 61 33 SSW 995,3 - 0,0
10.11.2018 22:00:00 12,9 9,2 42 23 61 33 SSW 995,0 12 0,0
10.11.2018 21:00:00 12,7 9,0 43 23 64 34 SSW 995,2 - 0,4
10.11.2018 20:00:00 13,2 8,9 42 23 63 34 SSW 995,2 - 0,0
10.11.2018 19:00:00 13,2 8,5 41 22 58 31 SSW 995,0 12 0,0
10.11.2018 18:00:00 13,0 8,5 39 21 60 33 SSW 994,7 - 0,0
10.11.2018 17:00:00 14,0 9,0 41 22 62 34 SSW 994,5 - 0,0
10.11.2018 16:00:00 13,9 9,1 37 20 61 33 SSW 994,4 - 0,2
10.11.2018 15:00:00 13,9 9,7 30 16 55 30 S 994,4 - 0,0
10.11.2018 14:00:00 14,1 10,1 40 22 58 31 S 994,8 - 0,0
10.11.2018 13:00:00 14,2 10,2 39 21 57 31 SSW 995,5 12 0,0
10.11.2018 12:00:00 13,9 10,1 37 20 54 29 SSW 995,9 - 0,0
10.11.2018 11:00:00 13,8 10,2 30 16 50 27 SSW 996,0 - 0,0
10.11.2018 10:00:00 13,4 10,0 34 18 51 27 SSW 996,0 12 0,0
10.11.2018 09:00:00 12,9 9,5 35 19 50 27 SSW 995,6 - 0,0
10.11.2018 08:00:00 12,9 9,7 36 19 49 26 SSW 995,3 - 0,0
10.11.2018 07:00:00 13,4 10,2 34 18 50 27 SW 995,2 10 0,0
10.11.2018 06:00:00 12,4 9,8 31 17 65 35 WSW 995,1 - 0,6
10.11.2018 05:00:00 13,9 10,5 34 18 49 26 SW 994,5 - 0,0
10.11.2018 04:00:00 13,6 10,4 36 19 54 29 SW 994,3 6 0,0
10.11.2018 03:00:00 13,8 10,8 36 19 50 27 SW 993,8 - 0,0
10.11.2018 02:00:00 13,4 10,7 35 19 54 29 SSW 993,4 - 0,0
10.11.2018 01:00:00 12,9 11,0 41 22 72 39 S 993,3 6 0,8
10.11.2018 00:00:00 12,6 10,5 49 26 96 52 S 993,6 - 0,8
09.11.2018 23:00:00 12,2 9,6 63 34 97 53 S 993,4 - 1,6
09.11.2018 22:00:00 11,9 9,3 63 34 106 57 S 993,8 6 1,2
09.11.2018 21:00:00 12,2 9,0 69 37 104 56 S 994,4 - 0,4
09.11.2018 20:00:00 11,4 8,3 70 38 116 63 S 995,6 - 0,8
09.11.2018 19:00:00 12,1 8,2 64 34 99 53 S 996,5 6 0,6
09.11.2018 18:00:00 12,1 8,6 56 30 90 48 S 998,0 - 2,0
09.11.2018 17:00:00 13,5 7,3 53 29 80 43 S 999,8 - 0,0
09.11.2018 16:00:00 13,5 8,1 42 23 66 36 S 1001,1 12 0,0
09.11.2018 15:00:00 13,5 7,5 41 22 69 37 S 1002,6 - 0,0
09.11.2018 14:00:00 13,4 7,6 43 23 63 34 S 1004,4 - 0,0
09.11.2018 13:00:00 14,1 8,1 36 19 67 36 S 1005,6 14 0,0
09.11.2018 12:00:00 13,5 7,9 40 22 61 33 SSW 1006,3 - 0,0
09.11.2018 11:00:00 13,5 7,9 40 21 61 33 SSW 1006,5 - -
09.11.2018 10:00:00 13,2 8,9 49 27 66 35 SW 1006,3 12 0,2
09.11.2018 09:00:00 12,6 9,8 38 21 54 29 S 1005,8 - 0,0
09.11.2018 08:00:00 11,3 8,3 30 16 44 24 SSE 1006,0 - 0,0
09.11.2018 07:00:00 10,1 7,2 24 13 39 21 SSE 1006,5 12 0,0
09.11.2018 06:00:00 10,4 6,7 27 15 42 23 SSE 1006,6 - 0,0
09.11.2018 05:00:00 10,5 6,6 24 13 38 21 SSE 1007,1 - 0,0
09.11.2018 04:00:00 10,8 6,7 27 15 42 23 SSE 1007,4 12 0,0
09.11.2018 03:00:00 10,9 6,2 30 16 45 25 SSE 1007,7 - 0,0
09.11.2018 02:00:00 10,5 5,9 28 15 42 23 SSE 1007,9 - 0,0
09.11.2018 01:00:00 10,1 5,7 23 13 37 20 SE 1008,7 12 0,0
09.11.2018 00:00:00 10,2 5,6 25 13 42 23 SSE 1009,3 - 0,0
08.11.2018 23:00:00 10,8 5,5 30 16 50 27 SE 1009,6 - 0,0
08.11.2018 22:00:00 10,9 5,0 32 17 53 29 SE 1010,0 12 0,0
08.11.2018 21:00:00 10,4 4,7 29 15 49 26 SE 1010,5 - 0,0
08.11.2018 20:00:00 10,3 4,9 28 15 42 23 SE 1010,6 - 0,0
08.11.2018 19:00:00 10,5 4,8 24 13 36 19 ESE 1010,5 12 0,0
08.11.2018 18:00:00 11,7 4,2 25 14 37 20 SE 1010,7 - 0,0
08.11.2018 17:00:00 - - - - - - - - - -
08.11.2018 16:00:00 - - - - - - - - - -
08.11.2018 15:00:00 13,6 5,7 32 17 52 28 SSE 1012,3 - 0,0
08.11.2018 14:00:00 14,2 7,0 36 19 55 30 SSE 1013,3 - 0,0
08.11.2018 13:00:00 12,7 7,6 37 20 56 31 SSE 1014,1 12 0,0
08.11.2018 12:00:00 13,3 7,9 36 19 58 31 S 1014,5 - 0,0
08.11.2018 11:00:00 12,5 7,8 38 21 58 31 SSE 1014,8 - 0,0
08.11.2018 10:00:00 11,3 7,2 29 16 52 28 SSE 1014,9 12 0,0
08.11.2018 09:00:00 10,3 6,6 31 17 53 28 SSE 1014,6 - 0,0

tt = Température de l'air
td = dewpoint
ff = Vitesse du vent
fx = gusts
dd = Direction du vent
ppp = reduced air pressure
vv = visibility
rr = Quantités de précipitations

stations d'obs. à proximité